User: anonymous
Location: Melbourne
(37.8170°S, 144.9670°E)
Time: 02:03:43
(UTC+10:00)
Language:

ADEOS Rocket - Orbit

View from above orbital plane
View from above orbital plane
View from above satellite
View from above satellite

Ground track
Ground track

The orbit data is extracted from the following two-line orbital elements,

1 24279U 96046C   14241.08241366 -.00000032  00000-0  52071-5 0  7074
2 24279 098.7410 299.6073 0300243 019.3028 036.0331 13.46988904886501
Epoch (UTC): 29 August 2014 01:58:40
Eccentricity: 0.0300243
inclination: 98.7410°
perigee height: 859 km
apogee height: 1307 km
right ascension of ascending node: 299.6073°
argument of perigee: 19.3028°
revolutions per day: 13.46988904
mean anomaly at epoch: 36.0331°
orbit number at epoch: 88650

The dashed part of the orbit path shows where the satellite is in the earth's shadow,  

DLR